Location: Antioch Baptist Church
(32.7160°N, 96.7483°W)
Time: 19:54:52
(UTC+00:00)

Meteor 1-31 Rocket - Pass Details

Date: 05 December 2023
Orbit: 498 x 523 km, 97.7° (Epoch: 21 February)

Event Time Altitude Azimuth Distance (km) Brightness Sun altitude
Rises 12:21:27 0° 20° (NNE) 2,649 6.3 -11.1°
Reaches altitude 10° 12:23:38 10° 27° (NNE) 1,762 5.5 -10.7°
Maximum altitude 12:27:15 42° 99° (E) 759 4.2 -9.9°
Drops below altitude 10° 12:30:52 10° 171° (S) 1,762 5.8 -9.2°
Sets 12:33:03 0° 178° (S) 2,649 6.6 -8.8°
